[[{"header":{"parameterUnit":"m.s-1","parameterCategory":2,"la1":30.2991,"la2":30.254,"lo1":-89.0895,"lo2":-89.0444,"dy":0.0017,"dx":0.0017,"nx":28,"ny":28,"refTime":"2025-09-01T09:00:00:Z","depth":"0","parameterNumber":2,"parameterNumberName":"U-component_of_CURRENTS"},"data":[0,0,0,0,0,0,0,0,0,0,0,0,0,0,0,0,0,0,0,0,0,0,0,0,0,0,0,0,0,0,0,0,0,0,0,0,0,0,0,0,0,0,0,0,0,0,0,0,0,0,0,0,0,0,0,0,0,0,-0.2916,-0.2917,0,-0.2959,-0.2959,-0.2959,-0.2898,-0.2897,-0.2895,-0.2894,-0.2828,-0.2828,-0.2828,0,0,0,0,0,0,0,0,0,0,0,0,0,-0.2696,-0.2701,-0.2916,-0.2917,-0.2918,-0.2959,-0.2959,-0.2959,-0.2898,-0.2897,-0.2895,-0.2893,-0.2828,-0.2828,-0.2828,0,0,0,0,0,0,0,0,0,0,0,0,0,-0.2764,-0.2702,-0.2915,-0.2898,-0.2897,-0.2959,-0.2959,-0.2959,-0.2899,-0.2897,-0.2894,-0.2892,-0.2828,-0.2828,-0.2827,-0.2869,0,0,-0.2826,-0.2826,0,0,0,0,0,0,0,0,-0.2761,-0.2772,-0.2899,-0.2899,-0.2899,-0.2927,-0.2858,-0.2926,-0.2899,-0.2891,-0.2894,-0.2891,-0.2858,-0.2855,-0.2859,-0.2866,-0.2864,-0.2826,-0.2826,-0.2825,-0.2825,0,0,0,0,0,0,0,-0.2756,-0.2769,-0.2925,-0.2901,-0.2901,-0.286,-0.2867,-0.287,-0.2879,-0.2891,-0.2889,-0.2906,-0.2855,-0.286,-0.2857,-0.2863,-0.2826,-0.2825,-0.2825,-0.2825,-0.2866,-0.2868,0,0,0,0,0,0,-0.2773,-0.2766,-0.2924,-0.2928,-0.2831,-0.2867,-0.2874,-0.2915,-0.2881,-0.2877,-0.2908,-0.2903,-0.2862,-0.2858,-0.2854,-0.2864,-0.2825,-0.2825,-0.2825,-0.2865,-0.2866,-0.2868,0,0,0,0,0,0,-0.2769,-0.2788,-0.2923,-0.2851,-0.2866,-0.2874,-0.2919,-0.2917,-0.2912,-0.2896,-0.2887,-0.2905,-0.286,-0.2855,-0.2856,-0.2862,-0.2825,-0.2824,-0.2863,-0.2865,-0.2867,-0.2908,0,0,0,0,0,0,-0.2763,-0.2787,-0.2798,-0.2854,-0.2871,-0.2966,-0.2922,-0.2919,-0.293,-0.2924,-0.2892,-0.2883,-0.2858,-0.2857,-0.2855,-0.2861,-0.2824,-0.2861,-0.2864,-0.2867,-0.2904,-0.2911,-0.2916,0,0,0,0,0,-0.2755,-0.278,-0.2799,-0.2817,-0.2896,-0.2969,-0.2973,-0.2964,-0.2932,-0.2946,-0.2918,-0.2884,-0.2872,-0.2858,-0.2856,-0.2861,-0.286,-0.2863,-0.2866,-0.2902,-0.291,-0.2916,0,0,0,0,0,0,-0.2667,-0.278,-0.28,-0.2852,-0.2914,-0.2961,-0.2967,-0.297,-0.2961,-0.2942,-0.2907,-0.2899,-0.2903,-0.2887,-0.2873,-0.2883,-0.2859,-0.2862,-0.2887,-0.2894,-0.29,-0.2819,-0.2823,0,0,0,0,0,-0.2668,-0.2718,-0.282,-0.2851,-0.2896,-0.2934,-0.2952,-0.2964,-0.2978,-0.297,-0.2953,-0.2931,-0.2921,-0.2909,-0.2906,-0.2916,-0.2848,-0.2918,-0.2924,-0.2929,-0.2864,-0.278,-0.277,-0.2878,-0.2878,-0.2878,0,0,-0.2634,-0.2703,-0.2725,-0.2837,-0.2878,-0.2924,-0.2937,-0.2985,-0.2985,-0.2967,-0.2948,-0.2958,-0.2932,-0.2938,-0.2938,-0.2919,-0.2879,-0.2933,-0.2937,-0.2867,-0.2782,-0.2771,-0.276,-0.2881,-0.288,-0.288,0,0,-0.2587,-0.2674,-0.2699,-0.2768,-0.286,-0.2908,-0.2928,-0.3,-0.2997,-0.3018,-0.2992,-0.2993,-0.2996,-0.2966,-0.2951,-0.2988,-0.2919,-0.3012,-0.2962,-0.2885,-0.2873,-0.2862,-0.2816,-0.28,-0.3005,-0.3006,-0.3006,0,-0.2536,-0.2589,-0.271,-0.2756,-0.2781,-0.2901,-0.2912,-0.2959,-0.3004,-0.2978,-0.3011,-0.2974,-0.299,-0.2932,-0.2961,-0.2993,-0.2943,-0.2938,-0.2886,-0.2873,-0.286,-0.2815,-0.2797,-0.3008,-0.3008,-0.3007,-0.3007,0,-0.2516,-0.2554,-0.2582,-0.268,-0.2732,-0.2777,-0.2878,-0.2911,-0.2939,-0.2955,-0.2933,-0.2963,-0.2914,-0.2961,-0.2974,-0.2906,-0.2902,-0.291,-0.2856,-0.2851,-0.2806,-0.2786,-0.3011,-0.301,-0.301,-0.3009,0,0,-0.2418,-0.2536,-0.2543,-0.256,-0.2692,-0.2739,-0.2764,-0.2801,-0.2784,-0.2845,-0.2779,-0.2819,-0.2831,-0.2812,-0.2846,-0.2805,-0.2745,-0.2823,-0.2818,-0.2754,-0.258,-0.2553,-0.2528,-0.2739,-0.2734,-0.2731,-0.2603,0,-0.2353,-0.2388,-0.246,-0.2478,-0.2515,-0.2612,-0.2623,-0.2671,-0.2715,-0.2711,-0.2728,-0.2719,-0.2779,-0.278,-0.2739,-0.2754,-0.2684,-0.2778,-0.261,-0.2605,-0.256,-0.25,-0.2409,-0.2282,-0.2583,-0.258,-0.2577,0,-0.231,-0.2339,-0.2331,-0.2378,-0.24,-0.2423,-0.2449,-0.2478,-0.2513,-0.2535,-0.2514,-0.2556,-0.2529,-0.2593,-0.2509,-0.2567,-0.2543,-0.2548,-0.2543,-0.2461,-0.2535,-0.2326,-0.2234,-0.2221,-0.2546,-0.2548,-0.2551,0,-0.2199,-0.2247,-0.2222,-0.2251,-0.2335,-0.2313,-0.2351,-0.2398,-0.2414,-0.2424,-0.2434,-0.2394,-0.2406,-0.2345,-0.24,-0.2434,-0.2307,-0.2355,-0.228,-0.2281,-0.2132,-0.2125,-0.1966,-0.2209,-0.2209,-0.221,-0.221,0,-0.2121,-0.2108,-0.2173,-0.2177,-0.2148,-0.2228,-0.2203,-0.2239,-0.2276,-0.2282,-0.2335,-0.2328,-0.2342,-0.2315,-0.2319,-0.2241,-0.2224,-0.2212,-0.2213,-0.2156,-0.2153,-0.2079,-0.2113,-0.2205,-0.2206,-0.2207,-0.2208,0,-0.202,-0.206,-0.2052,-0.2097,-0.2107,-0.2095,-0.2151,-0.2147,-0.2196,-0.2201,-0.2207,-0.2259,-0.2224,-0.2229,-0.2165,-0.2146,-0.2035,-0.2047,-0.2004,-0.2,-0.191,-0.1952,-0.174,-0.1692,-0.1906,-0.1904,-0.1902,0,-0.1968,-0.1956,-0.1992,-0.1989,-0.2007,-0.2014,-0.2024,-0.2093,-0.2106,-0.2163,-0.2155,-0.2147,-0.2124,-0.2034,-0.1992,-0.191,-0.1934,-0.1783,-0.1809,-0.183,-0.1877,-0.1917,-0.1896,-0.1659,-0.1656,-0.1653,-0.1651,0,-0.1865,-0.1882,-0.1883,-0.1885,-0.189,-0.19,-0.1923,-0.1928,-0.2008,-0.2016,-0.2021,-0.2003,-0.1951,-0.1842,-0.1767,-0.1721,-0.1734,-0.1721,-0.1718,-0.1615,-0.1661,-0.1644,-0.1868,-0.1625,-0.1628,-0.163,-0.1631,-0.1632,-0.1779,-0.1761,-0.1769,-0.176,-0.1771,-0.1765,-0.1732,-0.1778,-0.1774,-0.177,-0.1842,-0.1786,-0.1737,-0.1616,-0.1568,-0.1463,-0.1533,-0.142,-0.1455,-0.1484,-0.1448,-0.1632,-0.1418,-0.1419,-0.1421,-0.1422,-0.1422,0,-0.1661,-0.1655,-0.1645,-0.1627,-0.1594,-0.1643,-0.1644,-0.1598,-0.1553,-0.1591,-0.1571,-0.1528,-0.141,-0.1385,-0.1293,-0.1224,-0.1204,-0.1203,-0.122,-0.1202,-0.1312,-0.1314,-0.1096,-0.1096,-0.1096,-0.1096,-0.1096,-0.1096,-0.1595,-0.1544,-0.1545,-0.1448,-0.1437,-0.1351,-0.1325,-0.1286,-0.1284,-0.1229,-0.123,-0.1268,-0.1265,-0.1297,-0.1184,-0.1117,-0.1101,-0.1054,-0.1098,-0.1191,-0.1214,-0.1237,-0.1243,-0.1014,-0.1014,-0.0929,-0.0928,-0.0928]},{"header":{"parameterUnit":"m.s-1","parameterCategory":2,"la1":30.2991,"la2":30.254,"lo1":-89.0895,"lo2":-89.0444,"dy":0.0017,"dx":0.0017,"nx":28,"ny":28,"refTime":"2025-09-01T09:00:00:Z","depth":"0","parameterNumber":3,"parameterNumberName":"V-component_of_CURRENTS"},"data":[0,0,0,0,0,0,0,0,0,0,0,0,0,0,0,0,0,0,0,0,0,0,0,0,0,0,0,0,0,0,0,0,0,0,0,0,0,0,0,0,0,0,0,0,0,0,0,0,0,0,0,0,0,0,0,0,0,0,-0.0386,-0.0385,0,-0.0303,-0.0302,-0.0301,-0.0259,-0.0259,-0.0259,-0.0259,-0.0129,-0.0126,-0.0122,0,0,0,0,0,0,0,0,0,0,0,0,0,-0.0443,-0.0443,-0.0386,-0.0385,-0.0384,-0.0303,-0.0302,-0.0301,-0.0259,-0.0259,-0.0259,-0.0259,-0.013,-0.0126,-0.0122,0,0,0,0,0,0,0,0,0,0,0,0,0,-0.0395,-0.0443,-0.0386,-0.0354,-0.035,-0.0304,-0.0302,-0.0301,-0.0259,-0.0259,-0.0259,-0.0259,-0.0132,-0.0127,-0.0121,-0.0088,0,0,-0.0106,-0.0103,0,0,0,0,0,0,0,0,-0.0398,-0.0393,-0.0359,-0.0356,-0.0352,-0.0292,-0.0275,-0.0228,-0.0259,-0.0293,-0.0259,-0.0259,-0.018,-0.0171,-0.0155,-0.0082,-0.0077,-0.0105,-0.0102,-0.01,-0.0098,0,0,0,0,0,0,0,-0.0401,-0.0396,-0.0352,-0.0358,-0.0354,-0.0322,-0.0315,-0.0266,-0.0235,-0.029,-0.0287,-0.0279,-0.0177,-0.016,-0.0151,-0.0075,-0.0105,-0.0101,-0.0097,-0.0095,0.0064,0.0065,0,0,0,0,0,0,-0.0416,-0.0399,-0.0355,-0.035,-0.0376,-0.0321,-0.0314,-0.031,-0.0237,-0.0226,-0.0279,-0.0277,-0.0169,-0.0157,-0.0146,-0.0098,-0.01,-0.0095,-0.0092,0.0063,0.0064,0.0065,0,0,0,0,0,0,-0.0418,-0.0413,-0.0358,-0.0373,-0.0364,-0.0321,-0.0317,-0.0309,-0.0293,-0.0229,-0.0218,-0.0271,-0.0168,-0.0154,-0.0103,-0.0093,-0.0092,-0.0088,0.0061,0.0063,0.0064,-0.0005,0,0,0,0,0,0,-0.042,-0.0414,-0.0418,-0.0374,-0.0364,-0.0336,-0.0316,-0.0307,-0.0288,-0.0285,-0.0219,-0.0207,-0.0167,-0.0111,-0.0098,-0.0086,-0.0084,0.006,0.0062,0.0064,-0.0004,-0.0006,-0.0007,0,0,0,0,0,-0.0422,-0.0432,-0.0419,-0.0414,-0.037,-0.0336,-0.0328,-0.0296,-0.0288,-0.0282,-0.0236,-0.0209,-0.0088,-0.0106,-0.0091,-0.0077,0.0059,0.0061,0.0064,-0.0003,-0.0005,-0.0007,0,0,0,0,0,0,-0.0459,-0.0427,-0.0412,-0.0412,-0.0378,-0.033,-0.0325,-0.03,-0.0259,-0.0258,-0.02,-0.0184,-0.0134,-0.0092,-0.0113,-0.0022,-0.0007,-0.0002,-0.0063,-0.0065,-0.0067,-0.0096,-0.0079,0,0,0,0,0,-0.0469,-0.0471,-0.0426,-0.0427,-0.0414,-0.037,-0.0353,-0.0329,-0.0287,-0.027,-0.0222,-0.0165,-0.011,-0.008,-0.0027,0.002,0.004,0.0043,0.0041,0.0039,0.0028,0.0048,0.0045,0.0073,0.0073,0.0073,0,0,-0.0485,-0.0468,-0.0468,-0.0435,-0.041,-0.0397,-0.036,-0.034,-0.0325,-0.0261,-0.0228,-0.0171,-0.0098,-0.0048,-0.0021,-0.0014,0.0048,0.0042,0.0039,0.0029,0.005,0.0046,0.0044,0.0075,0.0074,0.0074,0,0,-0.052,-0.0501,-0.0513,-0.0488,-0.0453,-0.0422,-0.0418,-0.0368,-0.0342,-0.0299,-0.0247,-0.019,-0.0109,-0.0055,-0.0018,0.0006,0.0035,0.0032,-0.0001,0.0018,0.0015,0.0012,0.0046,0.0047,0.0032,0.0032,0.0032,0,-0.0543,-0.0544,-0.0509,-0.0509,-0.0493,-0.0438,-0.0437,-0.0403,-0.034,-0.0318,-0.0298,-0.0178,-0.0113,-0.0052,-0.0037,-0.0,0.0015,-0.0006,0.0011,0.0009,0.0007,0.0043,0.0044,0.0029,0.0029,0.003,0.003,0,-0.0581,-0.0577,-0.0581,-0.0564,-0.0541,-0.0531,-0.0478,-0.0452,-0.0413,-0.0371,-0.0306,-0.022,-0.015,-0.0111,-0.0065,-0.0031,-0.0014,-0.0001,0.0003,-0.0001,0.0039,0.0041,0.0025,0.0026,0.0027,0.0027,0,0,-0.0643,-0.0616,-0.0616,-0.0612,-0.0567,-0.0553,-0.0529,-0.0485,-0.047,-0.0403,-0.0377,-0.0268,-0.0224,-0.0177,-0.0107,-0.008,-0.006,-0.005,-0.0048,-0.004,-0.0016,0.0029,0.0038,-0.0058,-0.0058,-0.0058,0.0019,0,-0.0681,-0.0697,-0.0665,-0.0668,-0.0667,-0.061,-0.0591,-0.0545,-0.0492,-0.0452,-0.0367,-0.0309,-0.0248,-0.0209,-0.0175,-0.0083,-0.0058,-0.0082,0.0007,0.001,0.0031,0.0041,0.0071,0.0144,0.0022,0.0022,0.0023,0,-0.0723,-0.0726,-0.0742,-0.0713,-0.0708,-0.07,-0.0659,-0.0632,-0.0563,-0.0521,-0.0461,-0.0391,-0.0311,-0.0272,-0.0154,-0.0178,-0.0108,-0.0047,-0.0043,0.0021,0.0061,0.0129,0.0154,0.0262,0.0027,0.0027,0.0027,0,-0.078,-0.0773,-0.0788,-0.078,-0.0745,-0.074,-0.0718,-0.0658,-0.0634,-0.0566,-0.0539,-0.0448,-0.0389,-0.0309,-0.016,-0.0167,-0.0043,-0.0034,0.007,0.0074,0.013,0.014,0.0248,0.0021,0.0021,0.0021,0.0021,0,-0.0825,-0.0833,-0.0819,-0.0827,-0.0842,-0.0796,-0.0794,-0.0755,-0.0703,-0.0676,-0.0582,-0.0533,-0.0401,-0.03,-0.019,-0.0039,-0.0064,0.0064,0.0093,0.0112,0.0119,0.024,0.0281,0.0024,0.0023,0.0022,0.0022,0,-0.0874,-0.0866,-0.0882,-0.0869,-0.0869,-0.0879,-0.0852,-0.0844,-0.0785,-0.0749,-0.073,-0.0599,-0.0457,-0.0313,-0.0155,-0.0062,0.0144,0.0124,0.0149,0.018,0.0364,0.04,0.0537,0.0595,0.0239,0.024,0.0242,0,-0.0895,-0.0913,-0.0927,-0.0945,-0.094,-0.0947,-0.0949,-0.0897,-0.0881,-0.0778,-0.0763,-0.0619,-0.0492,-0.0235,-0.005,0.0144,0.0224,0.0276,0.027,0.0382,0.0444,0.0468,0.0508,0.0327,0.0329,0.0331,0.0332,0,-0.093,-0.094,-0.0957,-0.1004,-0.1021,-0.1033,-0.1027,-0.1027,-0.0954,-0.0894,-0.0781,-0.0671,-0.041,-0.0161,0.009,0.0207,0.0359,0.0313,0.0418,0.0514,0.0556,0.0624,0.028,0.0346,0.0344,0.0343,0.0343,0.0342,-0.0951,-0.0981,-0.1012,-0.1052,-0.1079,-0.1099,-0.1095,-0.1067,-0.102,-0.0899,-0.0799,-0.059,-0.0256,0.0116,0.0245,0.0521,0.0487,0.0602,0.0636,0.065,0.0708,0.0401,0.0503,0.0503,0.0502,0.0502,0.0502,0,-0.0968,-0.1006,-0.1053,-0.1096,-0.1127,-0.1129,-0.1126,-0.1088,-0.1015,-0.0878,-0.0732,-0.0328,0.0007,0.0306,0.0685,0.0833,0.0856,0.0907,0.0946,0.097,0.0697,0.0703,0.0865,0.0864,0.0864,0.0864,0.0864,0.0864,-0.0979,-0.103,-0.106,-0.1117,-0.1145,-0.1151,-0.1139,-0.1065,-0.0953,-0.0689,-0.0441,-0.0251,0.0173,0.0757,0.1096,0.1127,0.1243,0.1242,0.1296,0.1108,0.1082,0.1057,0.1073,0.131,0.1311,0.156,0.1562,0.1564]}],[{"header":{"parameterUnit":"m.s-1","parameterCategory":2,"la1":30.2991,"la2":30.254,"lo1":-89.0895,"lo2":-89.0444,"dy":0.0017,"dx":0.0017,"nx":28,"ny":28,"refTime":"2025-09-01T09:00:00:Z","depth":"2","parameterNumber":2,"parameterNumberName":"U-component_of_CURRENTS"},"data":[0,0,0,0,0,0,0,0,0,0,0,0,0,0,0,0,0,0,0,0,0,0,0,0,0,0,0,0,0,0,0,0,0,0,0,0,0,0,0,0,0,0,0,0,0,0,0,0,0,0,0,0,0,0,0,0,0,0,-0.2316,-0.2317,0,-0.2362,-0.2362,-0.2363,-0.2343,-0.2342,-0.2341,-0.2341,-0.2341,-0.2342,-0.2342,0,0,0,0,0,0,0,0,0,0,0,0,0,-0.2243,-0.2244,-0.2316,-0.2317,-0.2318,-0.2362,-0.2362,-0.2363,-0.2343,-0.2342,-0.2341,-0.234,-0.234,-0.2341,-0.2342,0,0,0,0,0,0,0,0,0,0,0,0,0,-0.2277,-0.2244,-0.2316,-0.2316,-0.2316,-0.2362,-0.2362,-0.2363,-0.2343,-0.2342,-0.2341,-0.234,-0.234,-0.2341,-0.2342,-0.2375,0,0,-0.2346,-0.2347,0,0,0,0,0,0,0,0,-0.2275,-0.2279,-0.2315,-0.2316,-0.2317,-0.2348,-0.2337,-0.2366,-0.2344,-0.233,-0.234,-0.2339,-0.2342,-0.2343,-0.2351,-0.2375,-0.2375,-0.2346,-0.2347,-0.2347,-0.2348,0,0,0,0,0,0,0,-0.2273,-0.2278,-0.2331,-0.2316,-0.2317,-0.2324,-0.2327,-0.2342,-0.2339,-0.2331,-0.233,-0.2341,-0.2341,-0.235,-0.235,-0.2375,-0.2346,-0.2347,-0.2348,-0.2348,-0.2463,-0.2466,0,0,0,0,0,0,-0.2273,-0.2275,-0.233,-0.2333,-0.2296,-0.2327,-0.233,-0.2337,-0.234,-0.234,-0.2342,-0.234,-0.2348,-0.2349,-0.235,-0.2373,-0.2347,-0.2348,-0.2349,-0.2461,-0.2464,-0.2466,0,0,0,0,0,0,-0.2272,-0.2278,-0.2328,-0.2308,-0.2315,-0.2329,-0.2338,-0.2339,-0.2348,-0.2349,-0.2348,-0.2351,-0.2347,-0.2349,-0.2378,-0.2373,-0.2349,-0.235,-0.2458,-0.2462,-0.2465,-0.2428,0,0,0,0,0,0,-0.2269,-0.2277,-0.2284,-0.2308,-0.2316,-0.236,-0.2339,-0.234,-0.2358,-0.2356,-0.2357,-0.2356,-0.2346,-0.2377,-0.2379,-0.2374,-0.2351,-0.2455,-0.246,-0.2464,-0.2426,-0.243,-0.2433,0,0,0,0,0,-0.2266,-0.2286,-0.2284,-0.2291,-0.2325,-0.2362,-0.2367,-0.237,-0.236,-0.2373,-0.2379,-0.2356,-0.2407,-0.238,-0.2382,-0.2377,-0.2453,-0.2459,-0.2464,-0.2425,-0.2429,-0.2433,0,0,0,0,0,0,-0.2251,-0.2287,-0.2284,-0.2311,-0.2335,-0.236,-0.2379,-0.2379,-0.2395,-0.2397,-0.2382,-0.2383,-0.2408,-0.2418,-0.2389,-0.2433,-0.2428,-0.2434,-0.2398,-0.2402,-0.2405,-0.2373,-0.2352,0,0,0,0,0,-0.2254,-0.2274,-0.2308,-0.2323,-0.2345,-0.2362,-0.2378,-0.2386,-0.2405,-0.241,-0.2412,-0.2425,-0.2435,-0.2437,-0.2459,-0.248,-0.2449,-0.2487,-0.249,-0.2492,-0.2474,-0.2422,-0.2415,-0.2484,-0.2484,-0.2484,0,0,-0.2248,-0.2272,-0.228,-0.2322,-0.2343,-0.2363,-0.2368,-0.2406,-0.2412,-0.241,-0.2426,-0.244,-0.245,-0.2469,-0.2481,-0.2471,-0.2465,-0.2499,-0.25,-0.248,-0.2426,-0.2418,-0.2411,-0.2487,-0.2487,-0.2486,0,0,-0.2241,-0.2276,-0.2287,-0.2317,-0.2361,-0.238,-0.2392,-0.243,-0.2442,-0.2481,-0.2466,-0.2478,-0.2517,-0.2497,-0.2496,-0.254,-0.2489,-0.2559,-0.2531,-0.248,-0.2472,-0.2464,-0.2429,-0.2418,-0.2551,-0.2551,-0.2551,0,-0.2226,-0.2241,-0.2295,-0.2316,-0.2329,-0.2384,-0.2389,-0.2424,-0.2461,-0.2455,-0.2492,-0.2506,-0.2525,-0.2488,-0.2511,-0.2538,-0.2504,-0.25,-0.2475,-0.2467,-0.246,-0.2425,-0.2413,-0.255,-0.255,-0.2551,-0.2551,0,-0.2221,-0.2238,-0.2256,-0.2288,-0.2318,-0.2343,-0.2396,-0.2426,-0.246,-0.247,-0.2481,-0.2514,-0.2501,-0.2524,-0.2533,-0.2485,-0.2478,-0.2482,-0.2443,-0.2449,-0.2415,-0.2403,-0.2549,-0.2549,-0.2549,-0.255,0,0,-0.2157,-0.223,-0.223,-0.2236,-0.2303,-0.2324,-0.2357,-0.2374,-0.2371,-0.2432,-0.2406,-0.2448,-0.245,-0.2452,-0.2455,-0.2427,-0.237,-0.2432,-0.2429,-0.2357,-0.2252,-0.2206,-0.2189,-0.2349,-0.2347,-0.2345,-0.2251,0,-0.2118,-0.2136,-0.2183,-0.2191,-0.2205,-0.2265,-0.2283,-0.2315,-0.2356,-0.2363,-0.2387,-0.2391,-0.2426,-0.2423,-0.2394,-0.2385,-0.2336,-0.2395,-0.2292,-0.2289,-0.2213,-0.2173,-0.2036,-0.1936,-0.224,-0.2238,-0.2236,0,-0.2077,-0.2097,-0.2095,-0.2133,-0.2144,-0.2158,-0.2179,-0.2207,-0.2237,-0.2271,-0.2266,-0.2296,-0.2273,-0.2319,-0.2252,-0.2282,-0.2255,-0.225,-0.2246,-0.2199,-0.222,-0.1983,-0.1903,-0.2216,-0.2218,-0.222,-0.2221,0,-0.1988,-0.2026,-0.2015,-0.2032,-0.2093,-0.2091,-0.2118,-0.2157,-0.2178,-0.2197,-0.2215,-0.2191,-0.22,-0.2158,-0.2179,-0.2198,-0.2109,-0.2131,-0.2051,-0.2049,-0.1911,-0.1899,-0.2045,-0.2045,-0.2045,-0.2045,-0.2046,0,-0.192,-0.1912,-0.1975,-0.1973,-0.1963,-0.2027,-0.2019,-0.2053,-0.2091,-0.2097,-0.2147,-0.2146,-0.216,-0.2136,-0.2129,-0.2055,-0.2058,-0.202,-0.2005,-0.1902,-0.1891,-0.2124,-0.2135,-0.2042,-0.2043,-0.2043,-0.2044,0,-0.1827,-0.1866,-0.1864,-0.1913,-0.1925,-0.1919,-0.1975,-0.1977,-0.2028,-0.2036,-0.2044,-0.2094,-0.2062,-0.2065,-0.2014,-0.1989,-0.1933,-0.1899,-0.1792,-0.1765,-0.1917,-0.1928,-0.1778,-0.1775,-0.1773,-0.1771,-0.1769,0,-0.178,-0.177,-0.1811,-0.1812,-0.1832,-0.1845,-0.1859,-0.1928,-0.1943,-0.2001,-0.1995,-0.1993,-0.1964,-0.1887,-0.1841,-0.1767,-0.1847,-0.1605,-0.1613,-0.188,-0.1882,-0.1896,-0.191,-0.1425,-0.142,-0.1417,-0.1414,0,-0.1687,-0.1705,-0.1709,-0.1716,-0.1726,-0.1739,-0.1766,-0.1772,-0.185,-0.186,-0.1863,-0.1843,-0.1794,-0.1663,-0.1595,-0.1546,-0.1611,-0.153,-0.1789,-0.153,-0.1543,-0.1548,-0.1572,-0.1382,-0.1386,-0.1388,-0.139,-0.1391,-0.161,-0.1596,-0.1607,-0.1603,-0.1619,-0.1613,-0.1582,-0.1625,-0.1622,-0.1614,-0.1681,-0.1607,-0.1594,-0.1411,-0.1332,-0.1281,-0.1397,-0.1338,-0.1349,-0.1365,-0.1357,-0.1366,-0.1172,-0.1173,-0.1175,-0.1176,-0.1178,0,-0.1505,-0.15,-0.1495,-0.1481,-0.1453,-0.1501,-0.1502,-0.1454,-0.1406,-0.1428,-0.1402,-0.1252,-0.1155,-0.1151,-0.1019,-0.0991,-0.0991,-0.0951,-0.0954,-0.0985,-0.1013,-0.0989,-0.0705,-0.0703,-0.0702,-0.0701,0,0,-0.1447,-0.1401,-0.1401,-0.1314,-0.1306,-0.1227,-0.12,-0.1154,-0.1138,-0.1062,-0.1028,-0.1097,-0.1118,-0.0917,-0.0865,-0.0762,-0.0867,-0.0721,-0.1101,-0.1135,-0.1162,-0.1234,-0.1231,0,0,0,0,0]},{"header":{"parameterUnit":"m.s-1","parameterCategory":2,"la1":30.2991,"la2":30.254,"lo1":-89.0895,"lo2":-89.0444,"dy":0.0017,"dx":0.0017,"nx":28,"ny":28,"refTime":"2025-09-01T09:00:00:Z","depth":"2","parameterNumber":3,"parameterNumberName":"V-component_of_CURRENTS"},"data":[0,0,0,0,0,0,0,0,0,0,0,0,0,0,0,0,0,0,0,0,0,0,0,0,0,0,0,0,0,0,0,0,0,0,0,0,0,0,0,0,0,0,0,0,0,0,0,0,0,0,0,0,0,0,0,0,0,0,-0.0257,-0.0256,0,-0.0209,-0.0209,-0.0208,-0.0168,-0.0167,-0.0167,-0.0167,-0.0068,-0.0066,-0.0064,0,0,0,0,0,0,0,0,0,0,0,0,0,-0.03,-0.03,-0.0257,-0.0256,-0.0256,-0.0209,-0.0209,-0.0208,-0.0168,-0.0167,-0.0167,-0.0166,-0.0069,-0.0066,-0.0064,0,0,0,0,0,0,0,0,0,0,0,0,0,-0.0269,-0.03,-0.0257,-0.0231,-0.0228,-0.021,-0.0209,-0.0208,-0.0168,-0.0167,-0.0167,-0.0166,-0.007,-0.0067,-0.0063,-0.0054,0,0,-0.0053,-0.0051,0,0,0,0,0,0,0,0,-0.0271,-0.0268,-0.0235,-0.0232,-0.0229,-0.0194,-0.0188,-0.0154,-0.0168,-0.019,-0.0167,-0.0166,-0.0107,-0.01,-0.0092,-0.0049,-0.0045,-0.0053,-0.0051,-0.0049,-0.0048,0,0,0,0,0,0,0,-0.0273,-0.027,-0.0237,-0.0234,-0.0231,-0.0217,-0.0212,-0.0182,-0.0151,-0.0188,-0.0185,-0.0181,-0.0104,-0.0096,-0.009,-0.0044,-0.0053,-0.005,-0.0048,-0.0046,0.0053,0.0053,0,0,0,0,0,0,-0.0282,-0.0272,-0.0239,-0.0236,-0.025,-0.0217,-0.0211,-0.0206,-0.0152,-0.0144,-0.0182,-0.0179,-0.0102,-0.0094,-0.0086,-0.0059,-0.0049,-0.0046,-0.0044,0.0052,0.0053,0.0053,0,0,0,0,0,0,-0.0283,-0.0279,-0.0241,-0.0253,-0.0247,-0.0217,-0.0211,-0.0205,-0.0195,-0.0148,-0.0138,-0.0178,-0.0101,-0.0091,-0.0059,-0.0055,-0.0044,-0.0041,0.0051,0.0052,0.0053,-0.0013,0,0,0,0,0,0,-0.0284,-0.028,-0.0284,-0.0254,-0.0247,-0.0235,-0.0211,-0.0205,-0.0194,-0.0191,-0.0142,-0.0132,-0.01,-0.0064,-0.0056,-0.005,-0.0039,0.0051,0.0052,0.0053,-0.0011,-0.0014,-0.0017,0,0,0,0,0,-0.0286,-0.0297,-0.0284,-0.028,-0.0251,-0.0236,-0.0231,-0.0207,-0.0195,-0.0195,-0.0159,-0.0133,-0.005,-0.0062,-0.0052,-0.0045,0.005,0.0051,0.0053,-0.001,-0.0014,-0.0017,0,0,0,0,0,0,-0.0321,-0.0293,-0.0278,-0.028,-0.0261,-0.0229,-0.0232,-0.0212,-0.0185,-0.018,-0.0134,-0.0122,-0.0092,-0.0057,-0.0071,-0.001,0.0008,0.0011,-0.0044,-0.0046,-0.0049,-0.0056,-0.0036,0,0,0,0,0,-0.033,-0.033,-0.0298,-0.0302,-0.0293,-0.0263,-0.0255,-0.0236,-0.0207,-0.0195,-0.0159,-0.0115,-0.0079,-0.0055,-0.0021,0.0008,0.0039,0.0024,0.0021,0.0019,0.0022,0.0057,0.0057,0.0058,0.0058,0.0058,0,0,-0.0347,-0.0332,-0.0333,-0.031,-0.0294,-0.0286,-0.0257,-0.0248,-0.0238,-0.0188,-0.0167,-0.013,-0.0075,-0.0044,-0.0026,-0.0013,0.0036,0.002,0.0017,0.0023,0.0058,0.0058,0.0058,0.0059,0.0059,0.0058,0,0,-0.0384,-0.0365,-0.0376,-0.0359,-0.0336,-0.0313,-0.0311,-0.0277,-0.0258,-0.0233,-0.0193,-0.0152,-0.01,-0.0057,-0.0028,-0.0021,0.0014,-0.0009,-0.0022,0.001,0.001,0.001,0.0045,0.0049,-0.0003,-0.0004,-0.0004,0,-0.0408,-0.0408,-0.0379,-0.038,-0.0369,-0.0326,-0.0329,-0.0305,-0.0265,-0.0246,-0.0233,-0.0147,-0.0103,-0.0055,-0.0049,-0.0028,-0.0007,-0.0021,0.0004,0.0005,0.0006,0.0043,0.0048,-0.0007,-0.0006,-0.0006,-0.0006,0,-0.0446,-0.0442,-0.0448,-0.0431,-0.0416,-0.0413,-0.0371,-0.0353,-0.0322,-0.0289,-0.0242,-0.0182,-0.0126,-0.0105,-0.0074,-0.0037,-0.0025,-0.0014,0.0004,0.0002,0.0041,0.0047,-0.0011,-0.001,-0.0009,-0.0008,0,0,-0.0505,-0.0481,-0.0481,-0.0476,-0.0439,-0.0431,-0.0412,-0.0377,-0.0361,-0.0312,-0.0286,-0.0213,-0.0175,-0.0139,-0.0092,-0.0056,-0.0027,-0.0034,-0.0031,-0.0014,0.0042,0.0069,0.0079,-0.0022,-0.0021,-0.0021,0.0064,0,-0.0542,-0.0558,-0.0529,-0.0533,-0.0532,-0.0482,-0.0467,-0.0428,-0.0384,-0.0348,-0.0275,-0.0233,-0.019,-0.0163,-0.0121,-0.005,-0.0012,-0.005,0.0056,0.0059,0.0071,0.0086,0.0078,0.0154,0.0071,0.0072,0.0073,0,-0.0581,-0.0584,-0.06,-0.0573,-0.0568,-0.0564,-0.0523,-0.0503,-0.0436,-0.04,-0.0341,-0.0285,-0.021,-0.0183,-0.0064,-0.0095,-0.0031,0.0023,0.0027,0.0081,0.0098,0.0146,0.0169,0.0084,0.0083,0.0082,0.0081,0,-0.0631,-0.0626,-0.0641,-0.0633,-0.0603,-0.0598,-0.058,-0.0522,-0.0501,-0.0433,-0.0406,-0.0316,-0.0265,-0.0179,-0.0055,-0.0065,0.0069,0.0071,0.0158,0.0161,0.0192,0.0196,0.0148,0.0148,0.0148,0.0148,0.0148,0,-0.067,-0.0678,-0.0669,-0.0675,-0.0689,-0.0648,-0.0644,-0.0608,-0.0556,-0.0528,-0.044,-0.0392,-0.0265,-0.0168,-0.0068,0.0072,0.0064,0.0164,0.0187,0.017,0.0171,0.0142,0.014,0.0151,0.015,0.015,0.0149,0,-0.0711,-0.0707,-0.0722,-0.0712,-0.0712,-0.0721,-0.0696,-0.0686,-0.0629,-0.0591,-0.0572,-0.0448,-0.0314,-0.0178,-0.0023,0.0062,0.0188,0.0237,0.0213,0.0231,0.026,0.0253,0.034,0.0342,0.0343,0.0344,0.0345,0,-0.0729,-0.0745,-0.076,-0.0777,-0.0775,-0.0781,-0.0783,-0.0734,-0.0715,-0.0616,-0.0599,-0.0464,-0.0347,-0.0104,0.0063,0.0245,0.0238,0.0334,0.0322,0.0267,0.0281,0.0272,0.0264,0.0339,0.034,0.034,0.0341,0,-0.0758,-0.0769,-0.0785,-0.0828,-0.0845,-0.0855,-0.0849,-0.0846,-0.0777,-0.0719,-0.0614,-0.0513,-0.0275,-0.0062,0.0167,0.0269,0.0304,0.0355,0.0315,0.0287,0.0272,0.0283,0.0274,0.0347,0.0347,0.0346,0.0346,0.0346,-0.0776,-0.0803,-0.0833,-0.0869,-0.0895,-0.0912,-0.0908,-0.088,-0.0835,-0.0722,-0.0632,-0.0443,-0.0256,0.0091,0.0243,0.0384,0.0378,0.0418,0.0413,0.0409,0.0389,0.0376,0.0468,0.0468,0.0468,0.0468,0.0469,0,-0.0792,-0.0826,-0.0868,-0.0907,-0.0936,-0.094,-0.0934,-0.0898,-0.0831,-0.0707,-0.0574,-0.0333,-0.0092,0.0101,0.0333,0.0462,0.0443,0.048,0.043,0.0424,0.0418,0.0396,0.048,0.048,0.048,0.048,0,0,-0.0801,-0.0847,-0.0873,-0.0925,-0.0952,-0.0959,-0.0948,-0.0878,-0.0776,-0.0629,-0.0479,-0.0297,-0.0062,0.0101,0.0262,0.0381,0.0365,0.0389,0.037,0.0288,0.028,0.0378,0.0336,0,0,0,0,0]}],[{"header":{"parameterUnit":"m.s-1","parameterCategory":2,"la1":30.2991,"la2":30.254,"lo1":-89.0895,"lo2":-89.0444,"dy":0.0017,"dx":0.0017,"nx":28,"ny":28,"refTime":"2025-09-01T09:00:00:Z","depth":"4","parameterNumber":2,"parameterNumberName":"U-component_of_CURRENTS"},"data":[0,0,0,0,0,0,0,0,0,0,0,0,0,0,0,0,0,0,0,0,0,0,0,0,0,0,0,0,0,0,0,0,0,0,0,0,0,0,0,0,0,0,0,0,0,0,0,0,0,0,0,0,0,0,0,0,0,0,-0.1388,-0.1388,0,-0.1412,-0.1412,-0.1413,-0.1432,-0.1432,-0.1433,-0.1433,-0.1485,-0.1486,-0.1488,0,0,0,0,0,0,0,0,0,0,0,0,0,-0.1429,-0.1428,-0.1388,-0.1388,-0.1388,-0.1412,-0.1412,-0.1413,-0.1432,-0.1432,-0.1433,-0.1433,-0.1485,-0.1486,-0.1488,0,0,0,0,0,0,0,0,0,0,0,0,0,-0.143,-0.1428,-0.1388,-0.14,-0.1401,-0.1412,-0.1412,-0.1413,-0.1432,-0.1432,-0.1433,-0.1433,-0.1484,-0.1486,-0.1488,-0.15,0,0,-0.1494,-0.1495,0,0,0,0,0,0,0,0,-0.143,-0.1428,-0.1398,-0.1399,-0.14,-0.1417,-0.1446,-0.1443,-0.1432,-0.1422,-0.1433,-0.1433,-0.1464,-0.1467,-0.1474,-0.1502,-0.1504,-0.1494,-0.1496,-0.1497,-0.1497,0,0,0,0,0,0,0,-0.143,-0.1428,-0.14,-0.1398,-0.1399,-0.1427,-0.1427,-0.1446,-0.1445,-0.1423,-0.1424,-0.1424,-0.1465,-0.1472,-0.1476,-0.1505,-0.1494,-0.1496,-0.1497,-0.1498,-0.159,-0.1591,0,0,0,0,0,0,-0.1419,-0.1427,-0.1399,-0.14,-0.1413,-0.1426,-0.1426,-0.1413,-0.1444,-0.1448,-0.1424,-0.1425,-0.1469,-0.1473,-0.1478,-0.1526,-0.1497,-0.1498,-0.15,-0.1589,-0.159,-0.1592,0,0,0,0,0,0,-0.1419,-0.1415,-0.1398,-0.1414,-0.1413,-0.1424,-0.1411,-0.1414,-0.1441,-0.1443,-0.1448,-0.1449,-0.1469,-0.1475,-0.1513,-0.1527,-0.1499,-0.1501,-0.1587,-0.1589,-0.1591,-0.1602,0,0,0,0,0,0,-0.142,-0.1415,-0.143,-0.1412,-0.1412,-0.1414,-0.1411,-0.1414,-0.1438,-0.144,-0.1467,-0.147,-0.1469,-0.151,-0.1515,-0.1529,-0.1503,-0.1586,-0.1588,-0.159,-0.16,-0.1604,-0.1607,0,0,0,0,0,-0.1421,-0.144,-0.143,-0.1428,-0.1421,-0.1414,-0.1418,-0.1428,-0.1439,-0.1453,-0.1476,-0.1471,-0.1528,-0.1513,-0.1519,-0.1533,-0.1585,-0.1587,-0.159,-0.1598,-0.1603,-0.1607,0,0,0,0,0,0,-0.1467,-0.1442,-0.1432,-0.1441,-0.143,-0.1417,-0.1442,-0.1442,-0.1471,-0.1486,-0.1489,-0.1494,-0.1533,-0.1538,-0.1521,-0.1568,-0.1555,-0.1559,-0.1559,-0.1564,-0.1567,-0.157,-0.1505,0,0,0,0,0,-0.148,-0.149,-0.1457,-0.1469,-0.1463,-0.1456,-0.1466,-0.1464,-0.1474,-0.1488,-0.1505,-0.1528,-0.1546,-0.1559,-0.1579,-0.1607,-0.1601,-0.162,-0.1624,-0.1627,-0.1635,-0.1642,-0.1647,-0.16,-0.16,-0.16,0,0,-0.1502,-0.1492,-0.1498,-0.1481,-0.1478,-0.1476,-0.1464,-0.1478,-0.1488,-0.149,-0.1534,-0.1547,-0.1559,-0.1588,-0.1605,-0.1594,-0.1635,-0.163,-0.1632,-0.1639,-0.1645,-0.165,-0.1653,-0.1602,-0.1602,-0.1602,0,0,-0.1536,-0.1536,-0.1545,-0.1542,-0.1535,-0.1521,-0.1526,-0.152,-0.1531,-0.1562,-0.1566,-0.1585,-0.1625,-0.1621,-0.1626,-0.1664,-0.1657,-0.168,-0.1696,-0.1703,-0.1706,-0.1709,-0.1692,-0.1694,-0.1677,-0.1677,-0.1677,0,-0.1558,-0.1557,-0.155,-0.1557,-0.156,-0.154,-0.1544,-0.1551,-0.1565,-0.1581,-0.1583,-0.1638,-0.1635,-0.1659,-0.1664,-0.1669,-0.1674,-0.1673,-0.1706,-0.1709,-0.1712,-0.1694,-0.1695,-0.1678,-0.1678,-0.1678,-0.1677,0,-0.1576,-0.1594,-0.1602,-0.1595,-0.1606,-0.1607,-0.1597,-0.162,-0.1631,-0.1634,-0.1676,-0.1675,-0.1702,-0.17,-0.1691,-0.1714,-0.171,-0.171,-0.1689,-0.1716,-0.1696,-0.1697,-0.1679,-0.1679,-0.1678,-0.1678,0,0,-0.1545,-0.1599,-0.16,-0.161,-0.1622,-0.1617,-0.1655,-0.1658,-0.1678,-0.1704,-0.1731,-0.1746,-0.175,-0.1756,-0.1746,-0.1743,-0.1743,-0.1739,-0.1739,-0.1712,-0.1754,-0.1633,-0.1622,-0.1759,-0.1759,-0.176,-0.1725,0,-0.154,-0.1567,-0.1602,-0.1626,-0.1624,-0.1652,-0.168,-0.1702,-0.1719,-0.1745,-0.1753,-0.1775,-0.1768,-0.1775,-0.1777,-0.1756,-0.1751,-0.1752,-0.1742,-0.1741,-0.1621,-0.1621,-0.1762,-0.1726,-0.1726,-0.1726,-0.1727,0,-0.151,-0.1537,-0.1567,-0.1625,-0.1627,-0.1653,-0.1689,-0.1713,-0.1758,-0.1781,-0.1819,-0.1827,-0.1832,-0.1817,-0.1809,-0.1818,-0.1793,-0.1771,-0.177,-0.1655,-0.1622,-0.1699,-0.1729,-0.1728,-0.1728,-0.1728,-0.1728,0,-0.1439,-0.1499,-0.1526,-0.1543,-0.1609,-0.1644,-0.1674,-0.1726,-0.1746,-0.18,-0.1819,-0.1852,-0.1848,-0.1851,-0.1808,-0.1819,-0.1787,-0.179,-0.1659,-0.165,-0.1766,-0.1763,-0.1787,-0.1787,-0.1788,-0.1788,-0.1788,0,-0.1383,-0.1405,-0.1501,-0.1509,-0.1544,-0.1609,-0.1646,-0.169,-0.1749,-0.1763,-0.1826,-0.1828,-0.1859,-0.1845,-0.1822,-0.173,-0.1798,-0.1656,-0.1633,-0.1769,-0.1768,-0.1765,-0.1763,-0.1786,-0.1787,-0.1787,-0.1787,0,-0.1295,-0.1358,-0.1394,-0.1483,-0.1511,-0.1534,-0.1621,-0.1641,-0.1712,-0.1734,-0.1752,-0.1805,-0.1781,-0.1789,-0.1764,-0.171,-0.1656,-0.161,-0.1738,-0.1724,-0.1514,-0.1514,-0.1462,-0.1457,-0.1454,-0.145,-0.1448,0,-0.1251,-0.1263,-0.1361,-0.1384,-0.143,-0.1483,-0.1515,-0.1606,-0.1625,-0.1697,-0.1689,-0.1704,-0.1721,-0.1582,-0.1617,-0.1563,-0.1546,-0.1512,-0.1529,-0.1498,-0.1482,-0.1487,-0.1492,-0.1441,-0.144,-0.1439,-0.1438,0,-0.1169,-0.1218,-0.1252,-0.1301,-0.1344,-0.1382,-0.1435,-0.1435,-0.1524,-0.1607,-0.1568,-0.1548,-0.1513,-0.1491,-0.1449,-0.142,-0.1534,-0.1471,-0.148,-0.1495,-0.1473,-0.1461,-0.147,-0.1425,-0.1427,-0.1428,-0.1429,0,-0.1111,-0.1118,-0.1171,-0.1199,-0.1254,-0.1258,-0.1301,-0.1314,-0.1342,-0.1431,-0.1411,-0.1436,-0.1488,-0.1414,-0.1384,-0.1335,-0.1322,-0.1284,-0.1302,-0.1317,-0.1286,-0.1237,-0.1088,0,0,0,0,0,-0.1046,-0.104,-0.1064,-0.1088,-0.1138,-0.1164,-0.1236,-0.1284,-0.1371,-0.13,-0.135,-0.1314,-0.1264,-0.1285,-0.1202,-0.1324,-0.1332,-0.1224,-0.13,-0.135,-0.1366,-0.1343,0,0,0,0,0,0,-0.1001,-0.102,-0.1025,-0.0987,-0.0983,-0.1019,-0.1058,-0.112,-0.1088,-0.1181,-0.1155,-0.1229,-0.1196,-0.1278,-0.1171,-0.1176,-0.1195,-0.1251,-0.1247,-0.1341,-0.1356,-0.1368,-0.135,0,0,0,0,0]},{"header":{"parameterUnit":"m.s-1","parameterCategory":2,"la1":30.2991,"la2":30.254,"lo1":-89.0895,"lo2":-89.0444,"dy":0.0017,"dx":0.0017,"nx":28,"ny":28,"refTime":"2025-09-01T09:00:00:Z","depth":"4","parameterNumber":3,"parameterNumberName":"V-component_of_CURRENTS"},"data":[0,0,0,0,0,0,0,0,0,0,0,0,0,0,0,0,0,0,0,0,0,0,0,0,0,0,0,0,0,0,0,0,0,0,0,0,0,0,0,0,0,0,0,0,0,0,0,0,0,0,0,0,0,0,0,0,0,0,-0.0209,-0.0209,0,-0.0202,-0.0202,-0.0202,-0.0176,-0.0176,-0.0175,-0.0175,-0.0132,-0.0131,-0.013,0,0,0,0,0,0,0,0,0,0,0,0,0,-0.021,-0.021,-0.0209,-0.0209,-0.0209,-0.0202,-0.0202,-0.0202,-0.0176,-0.0176,-0.0175,-0.0174,-0.0132,-0.0131,-0.013,0,0,0,0,0,0,0,0,0,0,0,0,0,-0.0206,-0.021,-0.0209,-0.0196,-0.0195,-0.0202,-0.0202,-0.0202,-0.0176,-0.0176,-0.0175,-0.0174,-0.0132,-0.0131,-0.013,-0.0139,0,0,-0.0127,-0.0127,0,0,0,0,0,0,0,0,-0.0207,-0.0206,-0.0198,-0.0197,-0.0196,-0.019,-0.0187,-0.0179,-0.0177,-0.0183,-0.0175,-0.0174,-0.0149,-0.0147,-0.0146,-0.0137,-0.0136,-0.0127,-0.0126,-0.0126,-0.0126,0,0,0,0,0,0,0,-0.0207,-0.0207,-0.0206,-0.0198,-0.0197,-0.0194,-0.0192,-0.0185,-0.0169,-0.0182,-0.018,-0.0181,-0.0148,-0.0147,-0.0145,-0.0135,-0.0127,-0.0126,-0.0126,-0.0125,-0.0137,-0.0138,0,0,0,0,0,0,-0.021,-0.0207,-0.0206,-0.0205,-0.02,-0.0195,-0.0193,-0.0192,-0.017,-0.0166,-0.0182,-0.018,-0.0149,-0.0146,-0.0143,-0.015,-0.0126,-0.0125,-0.0125,-0.0136,-0.0137,-0.0138,0,0,0,0,0,0,-0.021,-0.021,-0.0206,-0.0207,-0.0206,-0.0195,-0.0195,-0.0192,-0.0191,-0.017,-0.0165,-0.0183,-0.0149,-0.0145,-0.0142,-0.0148,-0.0125,-0.0124,-0.0135,-0.0137,-0.0138,-0.0164,0,0,0,0,0,0,-0.021,-0.021,-0.0214,-0.0207,-0.0206,-0.0216,-0.0195,-0.0193,-0.0193,-0.0191,-0.017,-0.0165,-0.0148,-0.0144,-0.0141,-0.0146,-0.0123,-0.0134,-0.0136,-0.0138,-0.0162,-0.0166,-0.017,0,0,0,0,0,-0.021,-0.022,-0.0214,-0.0214,-0.0211,-0.0216,-0.0216,-0.0205,-0.0194,-0.02,-0.0186,-0.0166,-0.0153,-0.0144,-0.014,-0.0145,-0.0133,-0.0135,-0.0137,-0.0161,-0.0166,-0.017,0,0,0,0,0,0,-0.0227,-0.0219,-0.0212,-0.022,-0.022,-0.0212,-0.0219,-0.021,-0.0205,-0.0201,-0.0176,-0.0171,-0.0173,-0.0161,-0.0151,-0.0156,-0.0141,-0.0142,-0.0159,-0.0164,-0.0168,-0.0148,-0.0122,0,0,0,0,0,-0.0233,-0.0238,-0.0229,-0.0239,-0.0238,-0.0229,-0.0231,-0.0224,-0.0217,-0.0213,-0.0199,-0.0187,-0.0181,-0.0173,-0.0169,-0.0169,-0.013,-0.0171,-0.0175,-0.0178,-0.0162,-0.0107,-0.0103,-0.0145,-0.0145,-0.0145,0,0,-0.0246,-0.0241,-0.0245,-0.0244,-0.0241,-0.0245,-0.0228,-0.0234,-0.0236,-0.021,-0.021,-0.0202,-0.0187,-0.0188,-0.0188,-0.0175,-0.0152,-0.0181,-0.0184,-0.0165,-0.0108,-0.0104,-0.01,-0.0147,-0.0146,-0.0146,0,0,-0.0274,-0.0266,-0.0278,-0.0275,-0.0273,-0.0265,-0.0267,-0.0261,-0.0256,-0.0261,-0.0241,-0.0231,-0.0231,-0.0209,-0.0201,-0.0224,-0.0179,-0.0233,-0.0227,-0.0175,-0.017,-0.0165,-0.0127,-0.0119,-0.0229,-0.0229,-0.0229,0,-0.0291,-0.0298,-0.0285,-0.0292,-0.029,-0.0274,-0.0283,-0.0278,-0.0273,-0.0263,-0.0267,-0.0242,-0.0236,-0.0211,-0.0224,-0.0229,-0.0195,-0.0209,-0.0176,-0.017,-0.0165,-0.0127,-0.0117,-0.023,-0.023,-0.023,-0.023,0,-0.0323,-0.0326,-0.0334,-0.033,-0.0328,-0.0336,-0.0321,-0.0318,-0.0311,-0.0297,-0.0281,-0.0267,-0.0243,-0.025,-0.0246,-0.0208,-0.0197,-0.019,-0.0158,-0.0161,-0.0123,-0.0112,-0.0232,-0.0232,-0.0231,-0.0231,0,0,-0.0362,-0.0358,-0.036,-0.036,-0.0347,-0.035,-0.0345,-0.033,-0.0319,-0.0308,-0.0287,-0.0278,-0.0253,-0.0242,-0.0228,-0.0186,-0.0137,-0.0174,-0.017,-0.0124,-0.0024,-0.0041,-0.0031,-0.0118,-0.0116,-0.0114,-0.0018,0,-0.0392,-0.0413,-0.0398,-0.0411,-0.0414,-0.0387,-0.0384,-0.0364,-0.0344,-0.0322,-0.0283,-0.0268,-0.0254,-0.0247,-0.0199,-0.0158,-0.0107,-0.0164,-0.0036,-0.0033,-0.0037,-0.0018,-0.0108,-0.001,-0.0007,-0.0005,-0.0004,0,-0.042,-0.0429,-0.0451,-0.044,-0.0438,-0.0444,-0.0418,-0.0413,-0.0364,-0.0346,-0.0297,-0.0266,-0.0209,-0.0205,-0.009,-0.0126,-0.0071,-0.0032,-0.0027,-0.0019,-0.0029,-0.0001,0.0016,0.0015,0.0013,0.0012,0.0011,0,-0.0449,-0.0458,-0.0478,-0.0477,-0.0467,-0.0469,-0.0462,-0.0422,-0.0411,-0.0356,-0.0337,-0.0254,-0.0226,-0.0132,-0.0057,-0.0067,0.007,0.0066,0.0112,0.0111,0.0111,0.0105,0.0169,0.0169,0.0168,0.0168,0.0168,0,-0.0471,-0.0485,-0.0498,-0.0508,-0.0527,-0.0504,-0.0507,-0.0483,-0.0443,-0.0421,-0.0352,-0.0312,-0.0204,-0.0119,-0.0041,0.0068,0.0091,0.0129,0.0144,0.0092,0.0083,0.0118,0.0111,0.0172,0.0171,0.017,0.017,0,-0.0489,-0.05,-0.0523,-0.0534,-0.0542,-0.0555,-0.055,-0.0542,-0.0501,-0.0468,-0.0452,-0.035,-0.0238,-0.0125,0.0018,0.0075,0.0182,0.0218,0.0151,0.0157,0.0185,0.0175,0.0287,0.0287,0.0287,0.0288,0.0288,0,-0.0495,-0.0513,-0.0551,-0.0573,-0.0584,-0.0601,-0.0609,-0.0579,-0.0563,-0.0487,-0.0468,-0.0358,-0.0281,-0.008,0.0029,0.0195,0.0211,0.0263,0.0235,0.0199,0.0202,0.0192,0.0182,0.0288,0.0289,0.0289,0.0289,0,-0.0504,-0.0528,-0.055,-0.0603,-0.0629,-0.0647,-0.0653,-0.0645,-0.0597,-0.0565,-0.0461,-0.035,-0.0223,-0.0076,0.0049,0.0165,0.0226,0.0267,0.0267,0.0241,0.0202,0.0203,0.0193,0.029,0.029,0.029,0.029,0,-0.0512,-0.0536,-0.0578,-0.0616,-0.0658,-0.0675,-0.0677,-0.0642,-0.0616,-0.0527,-0.0494,-0.0346,-0.026,-0.009,0.0027,0.0136,0.016,0.0184,0.0189,0.0189,0.0123,0.0057,0.0129,0,0,0,0,0,-0.0511,-0.0542,-0.0585,-0.0627,-0.0669,-0.0687,-0.0694,-0.0682,-0.0642,-0.0571,-0.0526,-0.04,-0.021,-0.0122,-0.0013,0.0016,0.0161,0.0144,0.0188,0.0296,0.0295,0.0231,0,0,0,0,0,0,-0.0513,-0.0559,-0.0582,-0.0625,-0.0654,-0.0689,-0.0694,-0.0669,-0.0616,-0.0563,-0.0455,-0.0386,-0.02,-0.0269,-0.0013,0.002,0.0058,0.0239,0.0241,0.0297,0.0296,0.0295,0.0228,0,0,0,0,0]}]]